This is the latest recevied weather packets stored in our database for station/object N3EDS. If no packets are shown the sender has not sent any weather packets the latest 10 day(s).
| Time | Temp. | Humidity | Pressure | Rain* | Wind** | Luminosity | Snow |
|---|---|---|---|---|---|---|---|
| 1777685563 | 5° C | 99% | 1013.4 hPa | 1.78 mm | - | 0 W/m² | - |
| 1777685260 | 5° C | 99% | 1013.7 hPa | 0 mm | - | 0 W/m² | - |
| 1777684958 | 5° C | 98% | 1013.3 hPa | 1.27 mm | - | 0 W/m² | - |
| 1777684655 | 5.56° C | 97% | 1013.4 hPa | 4.32 mm | - | 0 W/m² | - |
| 1777684351 | 6.11° C | 99% | 1013.2 hPa | 1.27 mm | - | 0 W/m² | - |
| 1777684049 | 6.11° C | 98% | 1012.8 hPa | 0 mm | - | 0 W/m² | - |
| 1777683744 | 6.11° C | 98% | 1012.7 hPa | 0 mm | - | 0 W/m² | - |
| 1777683442 | 6.11° C | 97% | 1012.6 hPa | 0 mm | - | 0 W/m² | - |
| 1777683140 | 6.11° C | 97% | 1012.6 hPa | 0 mm | - | 0 W/m² | - |
| 1777682836 | 6.11° C | 97% | 1012.4 hPa | 0 mm | - | 0 W/m² | - |
| 1777682532 | 6.11° C | 98% | 1012.4 hPa | 0 mm | - | 0 W/m² | - |
| 1777682231 | 6.11° C | 98% | 1012.5 hPa | 0 mm | - | 0 W/m² | - |
| 1777681928 | 6.11° C | 98% | 1012.3 hPa | 0 mm | - | 0 W/m² | - |
| 1777681623 | 6.11° C | 98% | 1012.4 hPa | 0 mm | - | 0 W/m² | - |
| 1777681321 | 6.11° C | 98% | 1012.3 hPa | 0 mm | - | 1 W/m² | - |
| 1777681018 | 6.11° C | 98% | 1012.2 hPa | 0 mm | - | 1 W/m² | - |
| 1777680715 | 6.11° C | 98% | 1012.1 hPa | 0 mm | - | 2 W/m² | - |
| 1777680413 | 6.11° C | 98% | 1012.3 hPa | 0 mm | - | 3 W/m² | - |
| 1777680111 | 6.11° C | 98% | 1012.4 hPa | 0 mm | - | 4 W/m² | - |
| 1777679806 | 6.11° C | 97% | 1012.2 hPa | 0 mm | - | 7 W/m² | - |
| 1777679503 | 6.11° C | 98% | 1011.8 hPa | 0 mm | - | 8 W/m² | - |
| 1777679198 | 6.11° C | 98% | 1012.4 hPa | 1.78 mm | - | 9 W/m² | - |
| 1777678896 | 6.11° C | 97% | 1012.4 hPa | 1.78 mm | - | 17 W/m² | - |
| 1777678594 | 6.11° C | 97% | 1012.2 hPa | 0 mm | - | 8 W/m² | - |
| 1777678291 | 6.11° C | 97% | 1012.3 hPa | 0 mm | - | 4 W/m² | - |
* Rain latest hour (hover to see other rain measurements)
** Current wind speed in m/s (hover to see current wind gust speed)